OCEANSAT-2

Last updated on Mon Jun 22 2026 00:02:51 GMT+0000 (Coordinated Universal Time)

1 35931U 09051A 26172.48869671 -.00000206 00000+0 -11482-3 0 9991 2 35931 98.2323 158.9111 0015564 222.9325 137.0628 13.99663293879936
UTC large
Height (km)
Speed (km/s)
/
Latitude / Longitude
Inclination (degrees)
Orbital Period (minutes)
Azimuth
Elevation
Range (km)
Doppler Factor

Next 0 passes for location: London (51.5072 / 0.1276)

No passes found over London.
OCEANSAT-2